Location: ????????
(55.9833°N, 37.7333°E)
Time: 00:23:32
(UTC+00:00)

Daily predictions for brighter satellites

Satellite Brightness Start Highest point End
(mag) Time Altitude Azimuth Time Altitude Azimuth Time Altitude Azimuth
Cosmos 405 3.6 00:09:08 54° ENE 00:09:08 54° ENE 00:12:07 10° NNE
IDEFIX/ARIANE 42P 3.9 00:04:14 10° NNE 00:09:08 37° E 00:12:52 16° SSE
SL-08 R/B 3.1 00:08:14 58° SSE 00:09:10 88° WSW 00:13:51 10° NNW
SL-16 R/B 3.4 00:12:19 30° W 00:12:19 30° W 00:17:05 10° NNW
Cosmos 1633 Rocket 2.9 00:07:26 10° NNW 00:11:50 84° WSW 00:11:56 82° SW
Cosmos 220 Rocket 4.3 00:11:33 51° SE 00:12:02 54° ESE 00:16:14 10° NE
Cosmos 1241 Rocket 4.5 00:10:11 48° SSW 00:12:05 80° SE 00:18:34 10° NE
Cosmos 1933 Rocket 4.4 00:11:50 10° N 00:16:07 50° ENE 00:20:14 11° SSE
Cosmos 1328 Rocket 4.4 00:14:40 31° SSE 00:16:24 48° E 00:20:42 10° NNE
Cosmos 1666 Rocket 3.6 00:12:27 10° NNW 00:16:42 64° W 00:16:42 64° W
ARIANE 5 R/B 3.1 00:13:47 10° NNE 00:18:49 52° E 00:21:31 25° SSE
IRS-1D 3.5 00:14:22 10° NNE 00:19:46 84° WNW 00:21:19 48° SSW
CZ-2D R/B 2.4 00:14:44 10° N 00:19:53 48° WNW 00:20:45 44° W
Cosmos 1943 Rocket 4.1 00:17:16 13° WNW 00:20:37 21° NNW 00:24:50 10° NNE
AQUA 3.9 00:18:02 10° N 00:22:43 55° WNW 00:23:15 52° W
Cosmos 1606 2.5 00:24:11 89° N 00:24:11 89° N 00:27:58 10° NNE
Cosmos 1151 Rocket 3.4 00:23:47 39° SSE 00:25:11 61° E 00:29:29 10° NNE
NPP 3.9 00:20:36 10° N 00:25:50 51° WNW 00:26:59 43° WSW
ATLAS 5 CENTAUR R/B 1.6 00:26:24 60° W 00:27:09 76° NW 00:32:11 10° NE
Cosmos 2297 Rocket 3.5 00:26:01 10° NW 00:28:49 24° WNW 00:28:49 24° WNW
CBERS-1 3.9 00:26:58 10° NNE 00:32:05 72° WNW 00:33:37 45° SW
Resurs 1-4 Rocket 2.8 00:28:58 10° N 00:33:49 39° WNW 00:34:54 35° W
Cosmos 2082 3.8 00:29:53 10° NW 00:35:22 50° WSW 00:39:00 21° S
Genesis I 3.2 00:38:06 60° WNW 00:38:31 66° NW 00:42:22 10° NE
NOSS 3-4 (A) 4.2 00:32:24 10° NW 00:38:57 63° NNE 00:46:16 10° ESE
NOSS 3-4 (C) 4.2 00:32:30 10° NW 00:39:03 62° NNE 00:46:22 10° ESE
CZ-4C R/B 3.7 00:35:45 10° SSE 00:39:17 55° ENE 00:42:48 10° N
Cosmos 1933 3.2 00:42:24 49° SSW 00:43:27 86° W 00:47:34 10° NNE
Cosmos 2369 Rocket 4.1 00:41:05 12° WNW 00:44:47 21° NNW 00:49:07 10° NNE
Meteor 1-26 Rocket 4.5 00:41:40 17° S 00:45:51 64° E 00:51:13 10° NNE
Meteor 1-25 Rocket 4.3 00:40:49 10° NNW 00:46:35 61° W 00:50:49 18° S
USA 305 4.5 00:46:32 21° S 00:47:42 24° SE 00:51:07 10° E
CZ-2D R/B 3.8 00:45:29 10° NNE 00:49:38 66° ESE 00:52:06 24° S
SJ 16-02 1.8 00:46:18 10° NNW 00:50:41 61° ENE 00:55:02 10° SE
USA 267 3.5 00:44:48 10° ENE 00:51:17 60° SSE 00:54:57 27° SW
IRS-P3 4.1 00:46:09 10° NNE 00:51:30 75° WNW 00:54:12 30° SSW
USA 306 4.4 00:50:27 21° S 00:51:44 25° SE 00:55:13 10° E
ASTEX 1 3.5 00:47:47 10° N 00:52:49 81° E 00:56:54 16° S
CZ-4C R/B 3.5 00:47:33 10° WNW 00:53:34 47° NNE 01:00:47 10° E
Cosmos 1697 Rocket 2.9 00:50:48 25° SSW 00:54:06 69° ESE 00:59:43 10° NE
NOSS 2-1 (E) 3.9 00:53:13 34° WNW 00:54:15 44° NNW 00:58:23 10° NE
X-37B 3.3 00:56:52 10° SSE 00:56:52 10° SSE 00:57:03 10° SSE
Cosmos 405 Rocket 4.3 00:52:54 10° NW 00:55:02 22° WNW 00:55:02 22° WNW
CZ-2C R/B 4.1 00:52:16 10° NNE 00:56:52 33° E 01:01:30 10° SSE
Cosmos 1980 Rocket 3.1 00:53:31 13° S 00:58:17 46° ESE 01:03:39 10° NE
Cosmos 389 Rocket 3.3 00:58:26 18° SSE 01:00:47 49° E 01:04:15 10° NNE
H-2A R/B 2.1 00:57:18 10° SSE 01:01:42 89° W 01:06:13 10° NNW
Cosmos 2263 Rocket 2.1 00:56:18 10° NW 01:01:59 90° WSW 01:07:40 10° SSE
ERS-1 4.4 00:57:09 10° NNE 01:02:17 79° WNW 01:05:30 24° SSW
ATLAS 2AS CENTAUR R/B 3.2 00:55:17 10° NW 01:03:04 68° NNE 01:10:16 10° ESE
Meteor 1-14 Rocket 4.1 00:57:28 10° NNW 01:03:09 74° W 01:08:41 10° S
Cosmos 990 Rocket 4.4 00:58:47 10° NNW 01:03:58 66° ENE 01:09:09 10° SE
Cosmos 2221 4.5 01:06:06 14° WNW 01:06:28 15° NW 01:08:53 10° NNW
Cosmos 1602 3.8 01:03:03 10° NNW 01:06:47 50° W 01:08:06 33° SSW
Cosmos 1821 Rocket 4.3 01:01:22 10° NNW 01:07:22 46° W 01:11:56 17° SSW
ERS-2 2.5 01:03:53 10° SSE 01:07:31 65° ENE 01:11:11 10° NNW
Iridium 2 3.8 01:04:53 17° S 01:07:39 74° E 01:11:25 10° N
Cosmos 1818 3.7 01:05:33 29° WSW 01:08:20 65° NW 01:13:47 10° NE
Cosmos 1844 Rocket 4.1 01:03:19 10° NNW 01:08:36 39° NE 01:13:52 10° ESE
SL-16 R/B 4.5 01:07:29 10° SSE 01:11:41 22° ESE 01:15:53 10° NE
Cosmos 2227 4.1 01:06:59 10° NW 01:12:41 75° WSW 01:18:18 10° SSE
Spot 4 Rocket 4.0 01:09:44 10° NNE 01:14:55 86° WNW 01:19:15 15° SSW
Cosmos 1470 Rocket 4.1 01:12:24 10° NNW 01:16:30 37° W 01:18:21 26° SW
USA 307 4.1 01:16:13 20° SSW 01:18:21 32° SSE 01:22:09 10° E
USA 308 4.1 01:19:11 20° SSW 01:21:26 33° SSE 01:25:16 10° E
Cosmos 1934 Rocket 4.0 01:16:46 10° NNW 01:22:40 56° W 01:28:33 10° S
Cosmos 1812 3.8 01:19:05 10° SSE 01:22:46 45° E 01:26:29 10° NNE
Meteor 1-5 Rocket 4.0 01:17:49 10° NNW 01:23:09 86° WSW 01:28:31 10° S
Cosmos 1500 3.1 01:20:03 10° NNW 01:23:56 76° W 01:27:46 10° S
Cosmos 2227 Rocket 4.0 01:24:12 10° WNW 01:25:13 12° WNW 01:25:13 12° WNW
IRIDIUM 104 4.4 01:23:38 10° N 01:28:54 85° E 01:34:08 10° S
Cosmos 1666 3.2 01:25:59 10° N 01:29:50 63° ENE 01:33:37 10° SSE
USA 234 4.0 01:24:43 10° SSE 01:30:15 29° SW 01:35:49 10° WNW
Landsat 5 3.8 01:25:58 10° S 01:30:24 52° W 01:34:48 10° NNW
Cosmos 1238 Rocket 4.2 01:24:02 10° NNW 01:30:30 56° W 01:36:42 10° SSW
ADEOS Rocket 3.1 01:24:00 10° SSE 01:30:45 87° ENE 01:36:51 10° NNW
PKM 4.3 01:28:42 16° W 01:32:04 44° SSW 01:35:23 10° SE
Cosmos 1898 Rocket 3.5 01:26:50 10° NNW 01:32:06 89° W 01:37:23 10° SSE
Cosmos 1656 4.1 01:30:38 21° WSW 01:34:06 48° NW 01:39:31 10° NNE
ADEOS II 3.1 01:31:03 10° N 01:35:35 30° WNW 01:38:28 18° WSW
Lacrosse 5 2.3 01:32:48 18° SW 01:36:26 55° SSE 01:41:23 10° ENE
Cosmos 1782 3.0 01:34:32 18° SW 01:37:22 53° WNW 01:41:22 10° N
IRIDIUM 114 4.3 01:32:48 10° N 01:38:03 83° W 01:43:17 10° S
Nadezhda 3 Rocket 4.3 01:33:54 16° SW 01:38:35 46° WNW 01:44:30 10° N
CZ-2C R/B 2.7 01:36:05 10° N 01:39:48 65° WNW 01:43:09 13° SSW
Cosmos 1515 Rocket 3.8 01:37:58 15° SW 01:41:25 50° WNW 01:45:46 10° N
USA 32 4.2 01:36:53 10° N 01:42:11 80° E 01:47:26 10° S
MSX 3.8 01:37:04 10° NNE 01:42:52 73° WNW 01:48:36 10° SSW
Cosmos 972 Rocket 4.1 01:40:30 17° SW 01:44:14 55° WNW 01:49:09 10° NNE
CZ-4B R/B 1.3 01:41:07 10° SSE 01:44:17 83° ENE 01:47:33 10° NNW
Cosmos 1605 Rocket 4.1 01:39:02 10° NNW 01:45:17 59° W 01:51:32 10° S
IRIDIUM 103 4.3 01:41:58 10° N 01:47:11 72° W 01:52:23 10° S
Meteor 1-11 Rocket 3.8 01:41:55 10° NNW 01:47:49 84° WSW 01:53:32 10° S
IDEFIX/ARIANE 42P 2.9 01:43:49 10° N 01:48:53 48° WNW 01:53:41 11° SW
Cosmos 44 3.8 01:46:35 10° SSW 01:50:56 54° SE 01:55:34 10° NE
USA 276 3.5 01:49:16 17° SW 01:50:59 27° S 01:53:47 10° ESE
Cosmos 2278 3.7 01:46:14 11° SW 01:51:50 83° NW 01:57:35 10° NE
Cosmos 1707 Rocket 4.3 01:50:32 10° S 01:54:46 55° E 01:59:02 10° NNE
Cosmos 921 Rocket 3.1 01:52:20 10° SSW 01:56:31 76° ESE 02:00:43 10° NNE
ARIANE 5 R/B 3.3 01:53:10 10° N 01:57:47 34° WNW 02:01:50 12° WSW
CZ-2D R/B 4.1 01:56:10 10° NNW 01:58:48 14° NW 02:01:26 10° WNW
Cosmos 2228 Rocket 3.1 01:54:49 10° SSW 01:59:11 61° WNW 02:03:34 10° N
Cosmos 2369 3.9 01:54:43 13° SW 01:59:50 59° NW 02:05:32 10° NNE
Cosmos 1937 Rocket 3.4 01:56:10 10° NNW 02:01:21 75° WSW 02:06:28 10° SSE
Cosmos 1743 4.0 01:58:11 10° N 02:01:52 44° ENE 02:05:31 10° SE
Cosmos 1151 Rocket 4.4 02:00:39 14° WSW 02:03:10 22° WNW 02:06:36 10° N
ATLAS CENTAUR R/B 3.2 01:52:39 10° WNW 02:04:45 85° SSW 02:09:12 10° ESE
SAR-Lupe-4 3.5 02:01:17 10° S 02:04:51 70° WSW 02:08:28 10° NNW
IRIDIUM 106 4.5 02:00:23 10° NNW 02:05:28 54° W 02:10:32 10° SSW
ALOS 3.3 02:01:51 10° NNE 02:06:26 50° E 02:10:58 10° S
Cosmos 1943 Rocket 4.4 02:02:45 10° NW 02:06:29 18° N 02:10:11 10° NE
PSLV R/B 4.4 02:03:22 10° SSE 02:07:23 65° ENE 02:11:28 10° N
Meteor 1-27 Rocket 4.3 02:01:50 10° S 02:07:42 69° E 02:13:36 10° NNE
Cosmos 1733 Rocket 3.1 02:03:46 10° NNW 02:08:11 87° ENE 02:12:31 10° SSE
SKYMED 2 4.0 02:07:58 10° SSE 02:12:17 68° ENE 02:16:38 10° NNW
COSMOS 2455 4.1 02:06:39 10° NW 02:12:21 41° NNE 02:18:02 10° E
Resurs 1-4 Rocket 4.2 02:10:45 10° NNW 02:12:21 11° NW 02:13:58 10° WNW
ATLAS 5 CENTAUR R/B 2.9 02:08:08 10° WNW 02:12:26 38° N 02:17:27 10° ENE
Cosmos 1869 Rocket 4.2 02:08:53 10° NNW 02:12:50 34° W 02:16:46 10° SSW
Cosmos 1536 2.8 02:09:16 10° NNW 02:13:20 66° W 02:17:22 10° S
SAR-Lupe-1 4.1 02:13:41 10° S 02:17:12 54° WSW 02:20:45 10° NNW
Cosmos 1484 Rocket 3.3 02:14:31 10° NNE 02:18:29 65° ESE 02:22:26 10° S
Cosmos 2100 Rocket 4.0 02:13:31 10° NNW 02:19:54 73° W 02:26:15 10° S
Cosmos 1802 Rocket 4.0 02:15:58 10° NNW 02:22:11 87° W 02:28:25 10° S
Meteor 1-4 Rocket 2.5 02:21:14 10° SSW 02:24:40 62° WNW 02:28:11 10° N
Cosmos 1727 Rocket 4.0 02:18:20 10° SSW 02:24:41 73° WNW 02:31:03 10° N
USA 305 3.3 02:23:00 10° WSW 02:27:11 55° SSE 02:31:21 10° E
Cosmos 1862 Rocket 4.2 02:24:14 10° S 02:28:33 61° E 02:32:52 10° NNE
SJ 16-02 2.5 02:25:28 10° NW 02:28:54 23° W 02:32:20 10° SSW
Meteor 1-31 Rocket 3.2 02:25:26 10° NNE 02:29:15 68° ESE 02:33:04 10° S
Cosmos 1763 Rocket 3.8 02:24:04 10° SSW 02:29:22 74° ESE 02:34:41 10° NNE
NOSS 3-4 (A) 3.9 02:23:21 10° NW 02:30:02 59° SW 02:37:27 10° SSE
PSLV R/B 3.9 02:26:04 10° N 02:30:07 45° WNW 02:34:08 10° SW
NOSS 3-4 (C) 3.9 02:23:27 10° NW 02:30:09 60° SW 02:37:35 10° SSE
Cosmos 2369 Rocket 4.4 02:27:04 10° NW 02:30:57 18° N 02:34:51 10° NE
USA 306 3.3 02:27:03 10° WSW 02:31:14 57° SSE 02:35:25 10° E
X-37B 3.1 02:30:54 10° SSW 02:31:34 10° SSW 02:32:15 10° S
Cosmos 2360 Rocket 3.9 02:27:12 10° S 02:32:20 36° ESE 02:37:29 10° NE
Cosmos 1689 Rocket 2.1 02:30:57 10° S 02:33:52 56° WSW 02:36:50 10° NNW
USA 267 3.4 02:28:01 10° ENE 02:34:36 87° N 02:41:11 10° W
CZ-2C R/B 2.8 02:30:24 10° N 02:35:18 51° WNW 02:40:17 10° SW
METEOR-M 4.5 02:32:21 10° NNE 02:37:45 75° ESE 02:43:06 10° S
